******************************************************************************* JPL/HORIZONS Bernardinelli-Bernstein (C/2014 UN271) 2025-Dec-12 17:58:39 Rec #:90004297 (+COV) Soln.date: 2025-Dec-12_11:12:29 # obs: 1585 (2010-2025) IAU76/J2000 helio. ecliptic osc. elements (au, days, deg., period=Julian yrs): EPOCH= 2459208.5 ! 2020-Dec-25.0000000 (TDB) RMSW= n.a. EC= .9979830723186224 QR= 10.93151948408094 TP= 2462894.8367033685 OM= 189.951961074616 W= 326.4088533352332 IN= 95.45881581807369 A= 5419.886684590685 MA= 359.9908942910585 ADIST= 10828.84184969729 PER= 399018.94158203 N= 2.47E-6 ANGMOM= .080392884 DAN= 11.92632 DDN= 129.48689 L= 193.5672855 B= -33.4187354 MOID= 10.08510017 TP= 2031-Jan-28.3367033685 Comet physical (GM= km^3/s^2; RAD= km): GM= n.a. RAD= n.a. M1= 5.6 M2= n.a. k1= 4.5 k2= n.a. PHCOF= n.a. COMET comments 1: soln ref.= JPL#115, data arc: 2010-11-15 to 2025-12-12 2: k1=4.5; ******************************************************************************* ******************************************************************************* Ephemeris / WWW_USER Fri Dec 12 17:58:39 2025 Pasadena, USA / Horizons ******************************************************************************* Target body name: Bernardinelli-Bernstein (C/2014 UN271) {source: JPL#115} Center body name: Sun (10) {source: DE441} Center-site name: BODYCENTRIC ******************************************************************************* Start time : A.D. 1600-Jan-01 00:00:00.0000 UT Stop time : A.D. 2500-Jan-01 00:00:00.0000 UT Step-size : 900 calendar years ******************************************************************************* Target pole/equ : undefined Target radii : undefined Center geodetic : 0.0, 0.0, -695700.0 {E-lon(deg),Lat(deg),Alt(km)} Center cylindric: 0.0, 0.0, 0.0 {E-lon(deg),Dxy(km),Dz(km)} Center pole/equ : IAU_SUN {East-longitude positive} Center radii : 695700.0, 695700.0, 695700.0 km {Equator_a, b, pole_c} Target primary : Sun Vis. interferer : None Rel. light bend : Sun {source: DE441} Rel. lght bnd GM: 1.3271E+11 km^3/s^2 Small-body perts: Yes {source: SB441-N16} Atmos refraction: NO (AIRLESS) RA format : HMS Time format : CAL Calendar mode : Mixed Julian/Gregorian EOP file : eop.251212.p260310 EOP coverage : DATA-BASED 1962-JAN-20 TO 2025-DEC-12. PREDICTS-> 2026-MAR-09 Units conversion: 1 au= 149597870.700 km, c= 299792.458 km/s, 1 day= 86400.0 s Table cut-offs 1: Elevation (-90.0deg=NO ),Airmass n.a. , Daylight (NO ) Table cut-offs 2: Solar elongation ( 0.0,180.0=NO ),Local Hour Angle( 0.0=NO ) Table cut-offs 3: RA/DEC angular rate ( 0.0=NO ) ******************************************************************************* Initial IAU76/J2000 heliocentric ecliptic osculating elements (au, days, deg.): EPOCH= 2459208.5 ! 2020-Dec-25.0000000 (TDB) RMSW= n.a. EC= .9979830723186224 QR= 10.93151948408094 TP= 2462894.8367033685 OM= 189.951961074616 W= 326.4088533352332 IN= 95.45881581807369 Equivalent ICRF heliocentric cartesian coordinates (au, au/d): X= 1.080602677352875E+01 Y= 7.239090645116457E+00 Z=-1.627500092031903E+01 VX=-5.134713527533539E-03 VY=-1.187572744280220E-03 VZ= 7.593585142198741E-04 Comet physical (GM= km^3/s^2; RAD= km): GM= n.a. RAD= n.a. M1= 5.6 M2= n.a. k1= 4.5 k2= n.a. PHCOF= n.a. ******************************************************************************* Date__(UT)__HR:MN r rdot RNG_3sigma RNGRT_3sig ************************************************************************* $$SOE 1600-Jan-01 00:00 309.8534710755 -2.3521607 3068127.80 0.0003151 2500-Jan-01 00:00 328.4800396083 2.2728585 3437504.49 0.0003375 $$EOE ******************************************************************************* Column meaning: TIME Times PRIOR to 1962 are UT1, a mean-solar time closely related to the prior but now-deprecated GMT. Times AFTER 1962 are in UTC, the current civil or "wall-clock" time-scale. UTC is kept within 0.9 seconds of UT1 using integer leap-seconds for 1972 and later years. Conversion from the internal Barycentric Dynamical Time (TDB) of solar system dynamics to the non-uniform civil UT time-scale requested for output has not been determined for UTC times after the next July or January 1st. Therefore, the last known leap-second is used as a constant over future intervals. Time tags refer to the UT time-scale conversion from TDB on Earth regardless of observer location within the solar system, although clock rates may differ due to the local gravity field and no analog to "UT" may be defined for that location. Any 'b' symbol in the 1st-column denotes a B.C. date. First-column blank (" ") denotes an A.D. date. CALENDAR SYSTEM Mixed calendar mode was active such that calendar dates after AD 1582-Oct-15 (if any) are in the modern Gregorian system. Dates prior to 1582-Oct-5 (if any) are in the Julian calendar system, which is automatically extended for dates prior to its adoption on 45-Jan-1 BC. The Julian calendar is useful for matching historical dates. The Gregorian calendar more accurately corresponds to the Earth's orbital motion and seasons. A "Gregorian-only" calendar mode is available if such physical events are the primary interest. NOTE: "n.a." in output means quantity "not available" at the print-time. STATISTICAL UNCERTAINTIES Output includes formal +/- 3 standard-deviation statistical orbit uncertainty quantities. There is a 99.7% (1-D) or 98.9% (2-D) chance the actual value is within given bounds. These statistical calculations assume observational data errors are random. If there are systematic biases (such as timing, reduction or star-catalog errors), results can be optimistic. Because the epoch covariance is mapped using linearized variational partial derivatives, results can also be optimistic for times far from the solution epoch, particularly for objects having close planetary encounters. 'r rdot' = The Sun's apparent range ("r", light-time aberrated) and range-rate ("rdot") relative to the target center, as seen by the observer. A positive "rdot" means the target center was moving away from the Sun, negative means moving toward the Sun. Units: AU and KM/S 'RNG_3sigma RNGRT_3sig' = Range and range rate (radial velocity) formal 3-standard-deviation uncertainties. Units: KM, KM/S Computations by ... Solar System Dynamics Group, Horizons On-Line Ephemeris System 4800 Oak Grove Drive, Jet Propulsion Laboratory Pasadena, CA 91109 USA General site: https://ssd.jpl.nasa.gov/ Mailing list: https://ssd.jpl.nasa.gov/email_list.html System news : https://ssd.jpl.nasa.gov/horizons/news.html User Guide : https://ssd.jpl.nasa.gov/horizons/manual.html Connect : browser https://ssd.jpl.nasa.gov/horizons/app.html#/x API https://ssd-api.jpl.nasa.gov/doc/horizons.html command-line telnet ssd.jpl.nasa.gov 6775 e-mail/batch https://ssd.jpl.nasa.gov/ftp/ssd/horizons_batch.txt scripts https://ssd.jpl.nasa.gov/ftp/ssd/SCRIPTS Author : Jon.D.Giorgini@jpl.nasa.gov ******************************************************************************* !$$SOF CENTER = '@sun' COMMAND = '2014 UN271' QUANTITIES = '19,39' START_TIME = '1600-01-01' STEP_SIZE = '900 years' STOP_TIME = '2500-01-01'